This is the latest recevied weather packets stored in our database for station/object KSRR. If no packets are shown the sender has not sent any weather packets the latest 10 day(s).
| Time | Temp. | Humidity | Pressure | Rain* | Wind** | Luminosity | Snow |
|---|---|---|---|---|---|---|---|
| 1777970615 | 15° C | 28% | 1014.6 hPa | - | - | - | - |
| 1777970022 | 13.89° C | 33% | 1007.8 hPa | - | - | - | - |
| 1777969421 | 13.89° C | 33% | 1007.8 hPa | - | - | - | - |
| 1777968819 | 13.89° C | 33% | 1014.6 hPa | - | - | - | - |
| 1777968221 | 13.89° C | 33% | 1014.6 hPa | - | - | - | - |
| 1777967618 | 15° C | 30% | 1008.1 hPa | - | - | - | - |
| 1777967019 | 15° C | 30% | 1008.1 hPa | - | - | - | - |
| 1777966416 | 15° C | 30% | 1014.9 hPa | - | - | - | - |
| 1777965820 | 15° C | 26% | 1014.9 hPa | - | - | - | - |
| 1777965216 | 15° C | 26% | 1014.9 hPa | - | - | - | - |
| 1777964619 | 15° C | 26% | 1014.9 hPa | - | - | - | - |
| 1777964018 | 15° C | 26% | 1014.6 hPa | - | - | - | - |
| 1777963420 | 15° C | 26% | 1014.6 hPa | - | - | - | - |
| 1777962816 | 13.89° C | 30% | 1014.9 hPa | - | - | - | - |
| 1777962214 | 13.89° C | 30% | 1014.9 hPa | - | - | - | - |
| 1777961618 | 13.89° C | 30% | 1014.9 hPa | - | - | - | - |
| 1777961017 | 13.89° C | 30% | 1014.9 hPa | - | - | - | - |
| 1777960423 | 15° C | 28% | 1009.1 hPa | - | - | - | - |
| 1777959823 | 15° C | 28% | 1009.1 hPa | - | - | - | - |
| 1777959218 | 15° C | 28% | 1015.2 hPa | - | - | - | - |
| 1777958618 | 15° C | 28% | 1015.2 hPa | - | - | - | - |
| 1777958018 | - | - | 1009.1 hPa | - | - | - | - |
| 1777957420 | - | - | 1009.1 hPa | - | - | - | - |
| 1777956815 | 16.67° C | 20% | 1015.6 hPa | - | - | - | - |
| 1777956217 | 16.67° C | 20% | 1015.6 hPa | - | - | - | - |
* Rain since midnight (hover to see other rain measurements)
** Current wind speed in m/s (hover to see current wind gust speed)